Flag Weather past 2 weeks in Detmold, North Rhine-Westphalia, Germany

Now
35 °F

Low clouds.


Feels Like: 35 °F
Forecast: 31 / 39 °F
Wind: 2 mph from Southeast

Location: Bad Lippspringe

Current Time: Nov 29, 2014 at 7:46:45 AM

Latest Report: Nov 29, 2014 at 7:00 AM


Visibility: N/A

Pressure: 30.03 "Hg

Humidity: 87%

Dew point: 32 °F

Location of DetmoldLocation

Historic Weather in Detmold — Graph

°F

Detmold temperature yesterday

Maximum temperature yesterday: 40 °F (at 2:00 PM)
Minimum temperature yesterday: 35 °F (at 8:00 PM)
Average temperature yesterday: 38 °F

Past Weeks' High & Low Weather Summary

 TemperatureHumidityPressure
High55 °F (Nov 23, 2:00 PM)100% (Nov 25, 6:00 AM)30.37 "Hg (Nov 25, 6:00 AM)
Low32 °F (Nov 25, 6:00 AM)65% (Nov 25, 2:00 PM)29.50 "Hg (Nov 16, 6:00 AM)
Average44 °F84%30.00 "Hg
* Reported Nov 14 7:00 AM — Nov 29 7:00 AM, Detmold, Weather by CustomWeather, © 2014

Note: Actual official high and low records may vary slightly from our data, if they occured in-between our weather recording intervals... More about our weather records

Advertising

Detmold weather history for previous 24 hours

 ConditionsComfort  
Time TempWeatherWind HumidityBarometerVisibility
7:00 AM
Nov 29
35 °FLow clouds.2 mph87%30.03 "HgN/A
6:00 AM35 °FLow clouds.5 mph87%30.02 "HgN/A
5:00 AM35 °FOvercast.3 mph86%30.01 "HgN/A
4:00 AM35 °FOvercast.5 mph84%30.02 "HgN/A
3:00 AM36 °FOvercast.5 mph82%30.03 "HgN/A
2:00 AM35 °FOvercast.5 mph84%30.02 "HgN/A
1:00 AM35 °FOvercast.5 mph84%30.01 "HgN/A
12:00 AM36 °FOvercast.6 mph82%30.01 "HgN/A
11:00 PM
Nov 28
36 °FOvercast.5 mph83%30.02 "HgN/A
10:00 PM35 °FOvercast.3 mph83%30.00 "HgN/A
9:00 PM35 °FOvercast.2 mph83%29.99 "HgN/A
8:00 PM35 °FPassing clouds.6 mph83%29.98 "HgN/A
7:00 PM35 °FOvercast.3 mph83%29.97 "HgN/A
6:00 PM36 °FOvercast.2 mph83%29.97 "HgN/A
5:00 PM36 °FPassing clouds.5 mph80%29.96 "HgN/A
4:00 PM37 °FScattered clouds.3 mph80%29.93 "HgN/A
3:00 PM38 °FPassing clouds.7 mph77%29.92 "HgN/A
2:00 PM40 °FPassing clouds.5 mph75%29.91 "HgN/A
1:00 PM39 °FOvercast.3 mph78%29.92 "HgN/A
12:00 PM39 °FScattered clouds.3 mph79%29.91 "HgN/A
11:00 AM39 °FOvercast.5 mph81%29.91 "HgN/A
10:00 AM39 °FPassing clouds.5 mph81%29.91 "HgN/A
9:00 AM38 °FOvercast.5 mph85%29.90 "HgN/A
8:00 AM38 °FOvercast.2 mph86%29.89 "HgN/A
7:00 AM38 °FPassing clouds.5 mph85%29.87 "HgN/A
Weather by CustomWeather, © 2014

See weather overviewHow to use our weather pages